Skip Page Navigation
NASA JPL Caltech
NASA Logo - Jet Propulsion Laboratory + View the NASA Portal
+ Center for Near-Earth Object Studies
JPL Home Earth Solar System Stars & Galaxies Technology
JPL Solar System Dynamics
BODIES ORBITS EPHEMERIDES TOOLS PHYSICAL DATA DISCOVERY FAQ SITE MAP
IMPORTANT: The SSD Announcement email list is now available. Major changes are coming in the near future, including possible hostname and/or URL changes. To be notified of such changes, subscribe to this email list.

Please visit this page for more details.


JPL Small-Body Database Browser
Search: [ help ]  
461651 (2005 GM11)
Classification: Main-belt Asteroid          SPK-ID: 2461651
Ephemeris | Orbit Diagram | Orbital Elements | Mission Design | Physical Parameters | Discovery Circumstances ]

[ show orbit diagram ]
Orbital Elements at Epoch 2458600.5 (2019-Apr-27.0) TDB
Reference: JPL 15 (heliocentric ecliptic J2000)
 Element Value Uncertainty (1-sigma)   Units 
e .1356475752618468 6.0583e-08  
a 2.360419624336208 2.2068e-08 au
q 2.040234425694522 1.4456e-07 au
i 7.754338502080937 6.2907e-06 deg
node 56.01200406639826 3.7827e-05 deg
peri 154.7434693341307 4.2654e-05 deg
M 303.6173026839417 1.966e-05 deg
tp 2458807.955808743959
(2019-Nov-20.45580874)
7.387e-05 TDB
period 1324.592378565657
3.63
1.8576e-05
5.086e-08
d
yr
n .271781723815917 3.8114e-09 deg/d
Q 2.680604822977894 2.5062e-08 au
  Orbit Determination Parameters
   # obs. used (total)      137  
   data-arc span      5049 days (13.82 yr)  
   first obs. used      2005-04-01  
   last obs. used      2019-01-27  
   planetary ephem.      DE431  
   SB-pert. ephem.      SB431-N16  
   condition code      0  
   norm. resid. RMS      .6131  
   source      ORB  
   producer      Otto Matic  
   solution date      2019-Jul-14 03:06:44  

Additional Information
 Earth MOID = 1.03692 au 
 Jupiter MOID = 2.28843 au 
 T_jup = 3.527 
[ show covariance matrix ]

Ephemeris | Orbit Diagram | Orbital Elements | Mission Design | Physical Parameters | Discovery Circumstances ]

Physical Parameter Table
Parameter Symbol Value Units Sigma Reference Notes
absolute magnitude H 17.3   n/a MPO428089  

461651 (2005 GM11)          Discovered 2005-Apr-01 by LONEOS at Anderson Mesa
Reference: Last Updated: 2016-03-24
Ephemeris | Orbit Diagram | Orbital Elements | Mission Design | Physical Parameters | Discovery Circumstances ]
ABOUT SSD CREDITS/AWARDS PRIVACY/COPYRIGHT GLOSSARY LINKS
FirstGov 2019-Oct-15 00:22 UT
(server date/time)  
NASA Home Page
Site Manager:   Ryan S. Park
Webmaster  Alan B. Chamberlin